Weather History for Nome, AK

Change the Weather History Date:

Wednesday, December 4, 2013

  Actual Average Record
Temperature  
Mean Temperature 30 °F 12 °F  
Max Temperature 33 °F 19 °F 35 °F (1972)
Min Temperature 26 °F - -32 °F (1916)
Degree Days  
Heating Degree Days 35 53  
Month to date heating degree days 154 211  
Since 1 July heating degree days 3956 4309  
Cooling Degree Days 0    
Month to date cooling degree days 0  
Year to date cooling degree days 7  
Moisture  
Dew Point 27 °F    
Average Humidity 0    
Maximum Humidity 0    
Minimum Humidity 0    
Precipitation  
Precipitation 0.04 in 0.04 in 0.98 in (1919)
Month to date precipitation 0.50 0.14  
Year to date precipitation 20.82 15.87  
Snow  
Snow 0.40 in 0.40 in 6.00 in (1919)
Month to date snowfall 5.0 1.6  
Since 1 July snowfall 19.6 18.9  
Snow Depth 8.00 in    
Sea Level Pressure  
Sea Level Pressure 30.22 in    
Wind  
Wind Speed 17 mph (ENE)    
Max Wind Speed 26 mph    
Max Gust Speed 33 mph    
Visibility 6 miles    
Events Fog , Rain , Snow    
T = Trace of Precipitation, MM = Missing Value Source: NWS Daily Summary

Daily Weather History Graph

Daily Weather History Graph

Search for Another Location

Airport:

Trip Planner

Search our weather history database for the weather conditions in past years. The results will help you decide how hot, cold, wet, or windy it might be!

Date:

Astronomy

Dec. 04, 2013 Rise Set
Actual Time 11:34 AM AKST 4:09 PM AKST
Civil Twilight 10:19 AM AKST 5:24 PM AKST
Nautical Twilight 9:11 AM AKST 6:32 PM AKST
Astronomical Twilight 8:11 AM AKST 7:32 PM AKST
Moon 12:47 PM AKST (12/4) 7:05 PM AKST (12/4)
Length of Visible Light 7h 05m
Length of Day
4h 34m
Waxing Crescent, 5% of the Moon is Illuminated
Dec 4
Waxing Crescent
Dec 9
First Quarter
Dec 17
Full
Dec 25
Last Quarter
Jan 1
New

Hourly Weather History & Observations

Time (AKST) Temp. Windchill Dew Point Humidity Pressure Visibility Wind Dir Wind Speed Gust Speed Precip Events Conditions
12:53 AM 28.9 °F 22.8 °F 26.1 °F 89% 30.43 in 10.0 mi ENE 5.8 mph - N/A   Overcast
1:12 AM 28.4 °F 21.2 °F 26.6 °F 93% 30.43 in 10.0 mi ENE 6.9 mph - N/A   Scattered Clouds
1:53 AM 27.0 °F 19.5 °F 25.0 °F 92% 30.41 in 10.0 mi NE 6.9 mph - N/A   Overcast
2:53 AM 26.1 °F 20.5 °F 24.1 °F 92% 30.39 in 10.0 mi NNE 4.6 mph - N/A   Clear
3:53 AM 30.0 °F 23.2 °F 27.0 °F 88% 30.37 in 10.0 mi ENE 6.9 mph - N/A   Overcast
4:53 AM 32.0 °F 24.2 °F 27.0 °F 82% 30.32 in 10.0 mi ENE 9.2 mph - N/A   Overcast
5:53 AM 32.0 °F 23.6 °F 27.0 °F 82% 30.31 in 10.0 mi ENE 10.4 mph - N/A   Overcast
6:53 AM 30.9 °F 19.8 °F 26.1 °F 82% 30.30 in 10.0 mi East 16.1 mph - N/A   Overcast
7:53 AM 30.9 °F 20.2 °F 26.1 °F 82% 30.25 in 10.0 mi East 15.0 mph - N/A   Overcast
8:53 AM 30.0 °F 18.3 °F 24.1 °F 79% 30.23 in 10.0 mi East 17.3 mph 25.3 mph N/A   Overcast
9:53 AM 30.0 °F 17.9 °F 24.1 °F 79% 30.24 in 5.0 mi East 18.4 mph 28.8 mph 0.00 in Snow Light Snow
10:04 AM 28.4 °F 14.1 °F 24.8 °F 86% 30.24 in 2.5 mi East 24.2 mph 31.1 mph 0.00 in Snow Light Snow
10:13 AM 28.4 °F 16.2 °F 24.8 °F 86% 30.24 in 2.0 mi East 17.3 mph 26.5 mph 0.00 in Snow Light Snow
10:23 AM 28.4 °F 14.7 °F 24.8 °F 86% 30.24 in 3.0 mi East 21.9 mph - 0.00 in Snow Light Snow
10:48 AM 28.4 °F 15.8 °F 24.8 °F 86% 30.24 in 5.0 mi East 18.4 mph 26.5 mph 0.00 in Snow Light Snow
10:53 AM 28.9 °F 15.8 °F 25.0 °F 85% 30.24 in 5.0 mi East 20.7 mph 27.6 mph 0.00 in Snow Light Snow
11:13 AM 28.4 °F 15.1 °F 26.6 °F 93% 30.24 in 2.0 mi ENE 20.7 mph 29.9 mph 0.00 in Snow Light Snow
11:19 AM 28.4 °F 14.4 °F 26.6 °F 93% 30.23 in 1.5 mi ENE 23.0 mph 32.2 mph 0.00 in Snow Light Snow
11:34 AM 28.4 °F 14.7 °F 26.6 °F 93% 30.23 in 2.0 mi East 21.9 mph 29.9 mph 0.00 in Snow Light Snow
11:44 AM 28.4 °F 14.4 °F 26.6 °F 93% 30.23 in 1.5 mi East 23.0 mph 31.1 mph 0.01 in Snow Light Snow
11:53 AM 28.0 °F 13.9 °F 26.1 °F 92% 30.23 in 1.8 mi ENE 23.0 mph 31.1 mph 0.01 in Snow Light Snow
11:58 AM 28.4 °F 15.1 °F 26.6 °F 93% 30.23 in 0.8 mi East 20.7 mph 31.1 mph 0.00 in Snow Light Snow
12:07 PM 28.4 °F 15.1 °F 26.6 °F 93% 30.23 in 0.5 mi East 20.7 mph 31.1 mph 0.00 in Fog , Snow Snow
12:20 PM 28.4 °F 15.4 °F 26.6 °F 93% 30.23 in 1.0 mi East 19.6 mph 28.8 mph 0.00 in Snow Light Snow
12:53 PM 28.9 °F 15.8 °F 27.0 °F 92% 30.23 in 1.2 mi ENE 20.7 mph 26.5 mph 0.01 in Snow Light Snow
1:13 PM 28.4 °F - 26.6 °F 93% 30.22 in - North - - 0.01 in   Unknown
1:28 PM 28.4 °F 15.1 °F 26.6 °F 93% 30.21 in 2.0 mi East 20.7 mph 28.8 mph 0.01 in   Mist
1:38 PM 28.4 °F 14.7 °F 28.4 °F 100% 30.20 in 3.0 mi East 21.9 mph 28.8 mph 0.02 in   Mist
1:48 PM 28.4 °F 15.8 °F 28.4 °F 100% 30.19 in 4.0 mi East 18.4 mph 31.1 mph 0.02 in   Overcast
1:49 PM 28.9 °F 15.4 °F 28.0 °F 96% 30.19 in 4.0 mi East 21.9 mph 28.8 mph 0.02 in   Overcast
2:20 PM 28.4 °F 14.7 °F 28.4 °F 100% 30.18 in 2.0 mi East 21.9 mph 33.4 mph 0.00 in Snow Light Snow
2:40 PM 28.4 °F 14.1 °F 28.4 °F 100% 30.18 in 4.0 mi East 24.2 mph 29.9 mph 0.00 in Snow Light Snow
2:53 PM 28.9 °F 15.1 °F 27.0 °F 92% 30.18 in 4.0 mi East 23.0 mph 32.2 mph 0.00 in Snow Light Snow
3:53 PM 28.9 °F 16.1 °F 27.0 °F 92% 30.17 in 5.0 mi East 19.6 mph 27.6 mph 0.00 in   Overcast
4:51 PM 30.2 °F 16.5 °F 28.4 °F 93% 30.15 in 6.0 mi East 24.2 mph 28.8 mph N/A   Overcast
4:53 PM 30.0 °F 16.6 °F 28.0 °F 92% 30.15 in 6.0 mi East 23.0 mph - N/A   Overcast
5:38 PM 30.2 °F 17.1 °F 28.4 °F 93% 30.13 in 10.0 mi East 21.9 mph 31.1 mph N/A   Overcast
5:53 PM 30.0 °F 16.6 °F 28.0 °F 92% 30.12 in 10.0 mi East 23.0 mph 31.1 mph N/A   Overcast
6:53 PM 30.0 °F 17.2 °F 28.0 °F 92% 30.12 in 5.0 mi East 20.7 mph 29.9 mph 0.00 in Snow Light Freezing Drizzle
7:22 PM 30.2 °F 17.8 °F 28.4 °F 93% 30.11 in 10.0 mi East 19.6 mph - 0.00 in   Overcast
7:53 PM 30.9 °F 19.1 °F 28.0 °F 89% 30.11 in 10.0 mi East 18.4 mph 26.5 mph 0.00 in   Overcast
8:53 PM 32.0 °F 19.8 °F 28.9 °F 88% 30.09 in 10.0 mi East 20.7 mph 28.8 mph N/A   Overcast
9:18 PM 32.0 °F 19.8 °F 28.4 °F 87% 30.08 in 10.0 mi East 20.7 mph 26.5 mph N/A   Overcast
9:53 PM 32.0 °F 20.5 °F 28.9 °F 88% 30.07 in 10.0 mi East 18.4 mph - N/A   Overcast
10:53 PM 33.1 °F 22.2 °F 30.0 °F 89% 30.05 in 10.0 mi East 17.3 mph - N/A   Overcast
11:53 PM 33.1 °F 20.1 °F 28.9 °F 85% 30.05 in 8.0 mi East 25.3 mph 33.4 mph 0.00 in Rain Light Rain